Showing default

R2, 46913

Orbit data source: Space-Track

R2, 46913 is a payload satellite owned by NanoAvionics (LT) in LEO that was launched on Sat, 07 Nov 2020 UTC via a PSLV-DL launch vehicle from the Sirharikota (SRI). Payload-class satellites include a variety of spacecraft equipped with specific instruments for various scientific and technological missions. These include communications satellites like Starlink; space stations such as the ISS; scientific satellites like the Hubble; Earth observation satellites from companies like Planet Labs, Umbra, and HawkEye 360; GPS; miniature CubeSats for education and research; and military/defense satellites.

Loading next visibility...
Identifier
46913, 2020-081J
Orbit
LEO
Country
Flag of LTLT / LTU
Related business
Manufacturer
NanoAvionics US
Mission
Operational Commercial Technology
Bus & Motor
CUBESAT 6U, Unknown motor
Mass
6.8 kg wet, 6.8 kg dry
Launch date (UTC)
2020-11-07 (5 years ago)
Launch vehicle
PSLV-DL
Launch site
Sirharikota (SRI)
Object type
Payload
Rocket body
Debris
Shape & HBR
Box, Unknown HBR
Radar Cross Section
0.080 m², Small (<0.1 m²)

Expand to show TLE details & history
Last TLE update: 9 hours ago

TLE from 9 hours ago
0 R2
1 46913U 20081J   25243.15098097  .00012092  00000-0  56240-3 0  9993
2 46913  36.8997  40.6175 0008535 353.6715   6.3923 15.19349189267751
Epoch: 2025-08-31T03:37Z
TLE epoch observation values (Epoch: 2025-08-31T03:37:24.755Z)
Latitude
-0.00004°
Longitude
6.68926°
Altitude
501.076 km
Speed
7.619 km/s
True Right ascension
02h 42m 28s
True Declination
0° 00' 00"
Sunlit
Object was in full shadow at epoch
Visualization orbit readout
Latitude
Unknown
Longitude
Unknown
Altitude
Unknown
Speed
Unknown
Apparent Right ascension
Unknown
Apparent Declination
Unknown
Sunlit
N/A
Visualization observer readout
Local Sidereal Time
04:04:08
Azimuth
Unknown
Elevation
Unknown
Doppler factor
Unknown
Orbital elements
Apogee altitude
516.628 km
Perigee altitude
504.869 km
Semi-major axis
6,888.886 km
Eccentricity
0.00085
Inclination
36.8997°
RAAN
40.6175°
Arg. of periapsis
353.6715°
True anomaly
6.4032°
Mean anomaly
6.3923°
Eccentric anomaly
6.39775°
Mean motion
3.79594 °/min
Orbital period
94.84 mins
BSTAR
0.0005624
Loading maneuver chart data...
Computing Atmospheric mass density...
Loading historical data...
Loading historical data...
Loading historical data...
Loading historical data...
Loading historical data...
Loading historical data...
Loading historical data...

Documentation

Showing up to 5 results
|